User: anonymous   Login
Location: Unspecified
(0.0000°N, 0.0000°E)
Time: 07:16:11
(UTC+00:00)
Language:

Kosmos-1655 - Orbit

View from above orbital plane
View from above orbital plane
View from above satellite
View from above satellite

Ground track
Ground track

The orbit data is extracted from the following two-line orbital elements,

1 15751U 85041A   17178.87150729 +.00000032 +00000-0 +18664-4 0  9994
2 15751 082.9495 318.1698 0026649 184.6580 329.0498 13.71691107605779
Epoch (UTC): 27 June 2017 20:54:58
Eccentricity: 0.0026649
inclination: 82.9495°
perigee height: 974 km
apogee height: 1013 km
right ascension of ascending node: 318.1698°
argument of perigee: 184.6580°
revolutions per day: 13.71691107
mean anomaly at epoch: 329.0498°
orbit number at epoch: 60577

The dashed part of the orbit path shows where the satellite is in the earth's shadow,  

DLR